Time,TemperatureF,DewpointF,PressureIn,WindDirection,WindDirectionDegrees,WindSpeedMPH,WindSpeedGustMPH,Humidity,HourlyPrecipIn,Conditions,Clouds,dailyrainin,SoftwareType,DateUTC
2013-08-19 00:01:00,66.4,61.4,30.11,SSE,158,0.0,0.2,84,0.00,,,0.00,WUHU216HW,2013-08-19 05:01:00,
2013-08-19 00:06:00,66.6,61.6,30.11,SSE,158,0.0,0.2,84,0.00,,,0.00,WUHU216HW,2013-08-19 05:06:00,
2013-08-19 00:11:00,66.6,61.6,30.11,SSE,158,0.0,0.0,84,0.00,,,0.00,WUHU216HW,2013-08-19 05:11:00,
2013-08-19 00:16:00,66.6,61.6,30.11,SSE,158,0.0,0.0,84,0.00,,,0.00,WUHU216HW,2013-08-19 05:16:00,
2013-08-19 00:21:00,66.4,61.4,30.11,SSE,158,0.0,0.0,84,0.00,,,0.00,WUHU216HW,2013-08-19 05:21:00,
2013-08-19 00:26:00,66.2,60.9,30.10,SSE,158,0.0,0.0,83,0.00,,,0.00,WUHU216HW,2013-08-19 05:26:00,
2013-08-19 00:31:00,66.1,61.0,30.11,SSE,158,0.0,0.0,84,0.00,,,0.00,WUHU216HW,2013-08-19 05:31:00,
2013-08-19 00:36:00,65.9,60.6,30.10,SSE,158,0.0,0.0,83,0.00,,,0.00,WUHU216HW,2013-08-19 05:36:00,
2013-08-19 00:41:00,65.7,60.4,30.11,SSE,158,0.0,0.0,83,0.00,,,0.00,WUHU216HW,2013-08-19 05:41:00,
2013-08-19 00:46:00,65.5,60.2,30.10,SSE,158,0.0,0.0,83,0.00,,,0.00,WUHU216HW,2013-08-19 05:46:00,
2013-08-19 00:51:00,65.2,60.2,30.11,SSE,158,0.0,0.0,84,0.00,,,0.00,WUHU216HW,2013-08-19 05:51:00,
2013-08-19 00:56:00,65.2,59.9,30.10,SSE,158,0.0,0.0,83,0.00,,,0.00,WUHU216HW,2013-08-19 05:56:00,
2013-08-19 01:01:00,65.0,60.0,30.10,SSE,158,0.0,0.0,84,0.00,,,0.00,WUHU216HW,2013-08-19 06:01:00,
2013-08-19 01:06:00,64.8,59.9,30.10,SSE,158,0.0,0.0,84,0.00,,,0.00,WUHU216HW,2013-08-19 06:06:00,
2013-08-19 01:11:00,64.6,59.3,30.10,SSE,158,0.0,0.0,83,0.00,,,0.00,WUHU216HW,2013-08-19 06:11:00,
2013-08-19 01:16:00,64.4,59.1,30.10,SSE,158,0.0,0.0,83,0.00,,,0.00,WUHU216HW,2013-08-19 06:16:00,
2013-08-19 01:21:00,64.4,59.1,30.10,SSE,158,0.0,0.0,83,0.00,,,0.00,WUHU216HW,2013-08-19 06:21:00,
2013-08-19 01:26:00,64.3,59.0,30.10,SSE,158,0.0,0.0,83,0.00,,,0.00,WUHU216HW,2013-08-19 06:26:00,
2013-08-19 01:31:00,64.1,58.8,30.10,SSE,158,0.0,0.0,83,0.00,,,0.00,WUHU216HW,2013-08-19 06:31:00,
2013-08-19 01:36:00,63.9,59.0,30.10,SSE,158,0.0,0.4,84,0.00,,,0.00,WUHU216HW,2013-08-19 06:36:00,
2013-08-19 01:41:00,63.9,59.0,30.10,SSE,158,0.0,0.4,84,0.00,,,0.00,WUHU216HW,2013-08-19 06:41:00,
2013-08-19 01:46:00,63.9,59.0,30.10,SSE,158,0.0,0.0,84,0.00,,,0.00,WUHU216HW,2013-08-19 06:46:00,
2013-08-19 01:51:00,63.7,58.8,30.10,SSE,158,0.0,0.0,84,0.00,,,0.00,WUHU216HW,2013-08-19 06:51:00,
2013-08-19 01:56:00,63.5,58.6,30.10,SSE,158,0.0,0.0,84,0.00,,,0.00,WUHU216HW,2013-08-19 06:56:00,
2013-08-19 02:01:00,63.4,58.4,30.10,SSE,158,0.0,0.0,84,0.00,,,0.00,WUHU216HW,2013-08-19 07:01:00,
2013-08-19 02:06:00,63.4,58.4,30.10,SSE,158,0.0,0.0,84,0.00,,,0.00,WUHU216HW,2013-08-19 07:06:00,
2013-08-19 02:11:00,63.2,58.6,30.10,SSE,158,0.0,0.0,85,0.00,,,0.00,WUHU216HW,2013-08-19 07:11:00,
2013-08-19 02:16:00,63.0,58.4,30.10,SSE,158,0.0,0.0,85,0.00,,,0.00,WUHU216HW,2013-08-19 07:16:00,
2013-08-19 02:21:00,63.0,58.4,30.10,SSE,158,0.0,0.0,85,0.00,,,0.00,WUHU216HW,2013-08-19 07:21:00,
2013-08-19 02:26:00,63.0,58.4,30.10,SSE,158,0.0,0.0,85,0.00,,,0.00,WUHU216HW,2013-08-19 07:26:00,
2013-08-19 02:31:00,63.0,58.8,30.10,SSE,158,0.0,0.0,86,0.00,,,0.00,WUHU216HW,2013-08-19 07:31:00,
2013-08-19 02:36:00,63.0,58.8,30.10,SSE,158,0.0,0.0,86,0.00,,,0.00,WUHU216HW,2013-08-19 07:36:00,
2013-08-19 02:41:00,63.0,58.8,30.10,SSE,158,0.0,0.0,86,0.00,,,0.00,WUHU216HW,2013-08-19 07:41:00,
2013-08-19 02:46:00,63.0,58.8,30.10,SSE,158,0.0,0.0,86,0.00,,,0.00,WUHU216HW,2013-08-19 07:46:00,
2013-08-19 02:51:00,62.8,58.6,30.10,SSE,158,0.0,0.0,86,0.00,,,0.00,WUHU216HW,2013-08-19 07:51:00,
2013-08-19 02:56:00,62.6,58.4,30.10,SSE,158,0.0,0.0,86,0.00,,,0.00,WUHU216HW,2013-08-19 07:56:00,
2013-08-19 03:01:00,62.6,58.4,30.10,SSE,158,0.0,0.0,86,0.00,,,0.00,WUHU216HW,2013-08-19 08:01:00,
2013-08-19 03:06:00,62.5,58.2,30.10,SSE,158,0.0,0.0,86,0.00,,,0.00,WUHU216HW,2013-08-19 08:06:00,
2013-08-19 03:11:00,62.3,58.1,30.10,SSE,158,0.0,0.0,86,0.00,,,0.00,WUHU216HW,2013-08-19 08:11:00,
2013-08-19 03:16:00,62.3,58.1,30.10,SSE,158,0.0,0.0,86,0.00,,,0.00,WUHU216HW,2013-08-19 08:16:00,
2013-08-19 03:21:00,62.1,57.9,30.10,SSE,158,0.0,0.0,86,0.00,,,0.00,WUHU216HW,2013-08-19 08:21:00,
2013-08-19 03:26:00,61.9,57.7,30.10,SSE,158,0.0,0.0,86,0.00,,,0.00,WUHU216HW,2013-08-19 08:26:00,
2013-08-19 03:31:00,61.9,57.7,30.10,SSE,158,0.0,0.0,86,0.00,,,0.00,WUHU216HW,2013-08-19 08:31:00,
2013-08-19 03:36:00,61.9,57.7,30.10,SSE,158,0.0,0.0,86,0.00,,,0.00,WUHU216HW,2013-08-19 08:36:00,
2013-08-19 03:41:00,61.9,57.7,30.10,SSE,158,0.0,0.0,86,0.00,,,0.00,WUHU216HW,2013-08-19 08:41:00,
2013-08-19 03:46:00,61.9,58.1,30.10,SSE,158,0.0,0.0,87,0.00,,,0.00,WUHU216HW,2013-08-19 08:46:00,
2013-08-19 03:51:00,61.7,57.9,30.10,SSE,158,0.0,0.0,87,0.00,,,0.00,WUHU216HW,2013-08-19 08:51:00,
2013-08-19 03:56:00,61.6,57.3,30.10,SSE,158,0.0,0.0,86,0.00,,,0.00,WUHU216HW,2013-08-19 08:56:00,
2013-08-19 04:01:00,61.6,57.7,30.10,SSE,158,0.0,0.0,87,0.00,,,0.00,WUHU216HW,2013-08-19 09:01:00,
2013-08-19 04:06:00,61.4,57.5,30.10,SSE,158,0.0,0.0,87,0.00,,,0.00,WUHU216HW,2013-08-19 09:06:00,
2013-08-19 04:11:00,61.2,57.3,30.10,SSE,158,0.0,0.0,87,0.00,,,0.00,WUHU216HW,2013-08-19 09:11:00,
2013-08-19 04:16:00,61.2,57.3,30.10,SSE,158,0.0,0.0,87,0.00,,,0.00,WUHU216HW,2013-08-19 09:16:00,
2013-08-19 04:21:00,61.2,57.3,30.10,SSE,158,0.0,0.0,87,0.00,,,0.00,WUHU216HW,2013-08-19 09:21:00,
2013-08-19 04:26:00,61.2,57.3,30.10,SSE,158,0.0,0.0,87,0.00,,,0.00,WUHU216HW,2013-08-19 09:26:00,
2013-08-19 04:31:00,61.2,57.3,30.10,SSE,158,0.0,0.0,87,0.00,,,0.00,WUHU216HW,2013-08-19 09:31:00,
2013-08-19 04:36:00,61.0,57.2,30.10,SSE,158,0.0,0.0,87,0.00,,,0.00,WUHU216HW,2013-08-19 09:36:00,
2013-08-19 04:41:00,61.0,57.2,30.10,SSE,158,0.0,0.0,87,0.00,,,0.00,WUHU216HW,2013-08-19 09:41:00,
2013-08-19 04:46:00,60.8,57.0,30.10,SSE,158,0.0,0.0,87,0.00,,,0.00,WUHU216HW,2013-08-19 09:46:00,
2013-08-19 04:51:00,60.8,57.0,30.10,SSE,158,0.0,0.0,87,0.00,,,0.00,WUHU216HW,2013-08-19 09:51:00,
2013-08-19 04:56:00,60.8,57.0,30.10,SSE,158,0.0,0.0,87,0.00,,,0.00,WUHU216HW,2013-08-19 09:56:00,
2013-08-19 05:01:00,60.8,57.0,30.10,SSE,158,0.0,0.0,87,0.00,,,0.00,WUHU216HW,2013-08-19 10:01:00,
2013-08-19 05:06:00,60.7,56.8,30.10,SSE,158,0.0,0.0,87,0.00,,,0.00,WUHU216HW,2013-08-19 10:06:00,
2013-08-19 05:11:00,60.7,56.8,30.10,SSE,158,0.0,0.0,87,0.00,,,0.00,WUHU216HW,2013-08-19 10:11:00,
2013-08-19 05:16:00,60.5,56.6,30.11,SSE,158,0.0,0.0,87,0.00,,,0.00,WUHU216HW,2013-08-19 10:16:00,
2013-08-19 05:21:00,60.5,56.6,30.10,SSE,158,0.0,0.0,87,0.00,,,0.00,WUHU216HW,2013-08-19 10:21:00,
2013-08-19 05:26:00,60.3,56.8,30.10,SSE,158,0.0,0.0,88,0.00,,,0.00,WUHU216HW,2013-08-19 10:26:00,
2013-08-19 05:31:00,60.3,56.8,30.10,SSE,158,0.0,0.0,88,0.00,,,0.00,WUHU216HW,2013-08-19 10:31:00,
2013-08-19 05:36:00,60.3,56.8,30.10,SSE,158,0.0,0.0,88,0.00,,,0.00,WUHU216HW,2013-08-19 10:36:00,
2013-08-19 05:41:00,60.3,56.8,30.10,SSE,158,0.0,0.0,88,0.00,,,0.00,WUHU216HW,2013-08-19 10:41:00,
2013-08-19 05:46:00,60.1,56.6,30.10,SSE,158,0.0,0.0,88,0.00,,,0.00,WUHU216HW,2013-08-19 10:46:00,
2013-08-19 05:51:00,60.1,56.6,30.10,SSE,158,0.0,0.0,88,0.00,,,0.00,WUHU216HW,2013-08-19 10:51:00,
2013-08-19 05:56:00,60.1,56.6,30.10,SSE,158,0.0,0.0,88,0.00,,,0.00,WUHU216HW,2013-08-19 10:56:00,
2013-08-19 06:01:00,60.1,56.6,30.11,SSE,158,0.0,0.0,88,0.00,,,0.00,WUHU216HW,2013-08-19 11:01:00,
2013-08-19 06:06:00,60.1,56.6,30.11,SSE,158,0.0,0.0,88,0.00,,,0.00,WUHU216HW,2013-08-19 11:06:00,
2013-08-19 06:11:00,60.1,56.6,30.11,SSE,158,0.0,0.0,88,0.00,,,0.00,WUHU216HW,2013-08-19 11:11:00,
2013-08-19 06:16:00,59.9,56.7,30.11,SSE,158,0.0,0.0,89,0.00,,,0.00,WUHU216HW,2013-08-19 11:16:00,
2013-08-19 06:21:00,59.9,56.7,30.11,SSE,158,0.0,0.0,89,0.00,,,0.00,WUHU216HW,2013-08-19 11:21:00,
2013-08-19 06:26:00,59.9,56.7,30.11,SSE,158,0.0,0.0,89,0.00,,,0.00,WUHU216HW,2013-08-19 11:26:00,
2013-08-19 06:31:00,59.9,56.7,30.11,SSE,158,0.0,0.0,89,0.00,,,0.00,WUHU216HW,2013-08-19 11:31:00,
2013-08-19 06:36:00,59.9,56.7,30.11,SSE,158,0.0,0.0,89,0.00,,,0.00,WUHU216HW,2013-08-19 11:36:00,
2013-08-19 06:41:00,59.9,56.7,30.11,SSE,158,0.0,0.0,89,0.00,,,0.00,WUHU216HW,2013-08-19 11:41:00,
2013-08-19 06:46:00,60.1,56.9,30.12,SSE,158,0.0,0.0,89,0.00,,,0.00,WUHU216HW,2013-08-19 11:46:00,
2013-08-19 06:51:00,60.1,57.2,30.12,SSE,158,0.0,0.0,90,0.00,,,0.00,WUHU216HW,2013-08-19 11:51:00,
2013-08-19 06:56:00,60.3,57.4,30.12,SSE,158,0.0,0.0,90,0.00,,,0.00,WUHU216HW,2013-08-19 11:56:00,
2013-08-19 07:01:00,60.7,57.8,30.12,SSE,158,0.0,0.0,90,0.00,,,0.00,WUHU216HW,2013-08-19 12:01:00,
2013-08-19 07:06:00,60.8,58.0,30.12,SSE,158,0.0,0.0,90,0.00,,,0.00,WUHU216HW,2013-08-19 12:06:00,
2013-08-19 07:11:00,61.4,58.5,30.12,SSE,158,0.0,0.0,90,0.00,,,0.00,WUHU216HW,2013-08-19 12:11:00,
2013-08-19 07:16:00,61.6,58.7,30.12,SSE,158,0.0,0.0,90,0.00,,,0.00,WUHU216HW,2013-08-19 12:16:00,
2013-08-19 07:21:00,61.9,59.3,30.12,SSE,158,0.0,0.0,91,0.00,,,0.00,WUHU216HW,2013-08-19 12:21:00,
2013-08-19 07:26:00,62.3,59.7,30.12,SSE,158,0.0,0.0,91,0.00,,,0.00,WUHU216HW,2013-08-19 12:26:00,
2013-08-19 07:31:00,62.6,60.0,30.12,East,90,0.3,0.4,91,0.00,,,0.00,WUHU216HW,2013-08-19 12:31:00,
2013-08-19 07:36:00,63.2,60.6,30.12,East,90,0.0,0.4,91,0.00,,,0.00,WUHU216HW,2013-08-19 12:36:00,
2013-08-19 07:41:00,63.7,61.1,30.12,ENE,63,0.3,0.4,91,0.00,,,0.00,WUHU216HW,2013-08-19 12:41:00,
2013-08-19 07:46:00,64.3,61.9,30.12,North,0,0.3,0.4,92,0.00,,,0.00,WUHU216HW,2013-08-19 12:46:00,
2013-08-19 07:51:00,64.8,62.2,30.12,North,0,0.0,0.4,91,0.00,,,0.00,WUHU216HW,2013-08-19 12:51:00,
2013-08-19 07:56:00,65.2,62.2,30.12,NNE,23,0.4,0.7,90,0.00,,,0.00,WUHU216HW,2013-08-19 12:56:00,
2013-08-19 08:01:00,65.7,62.7,30.13,NNE,23,0.0,0.7,90,0.00,,,0.00,WUHU216HW,2013-08-19 13:01:00,
2013-08-19 08:06:00,66.2,63.5,30.13,NE,45,0.0,0.4,91,0.00,,,0.00,WUHU216HW,2013-08-19 13:06:00,
2013-08-19 08:11:00,66.8,63.7,30.13,NNE,23,0.0,0.0,90,0.00,,,0.00,WUHU216HW,2013-08-19 13:11:00,
2013-08-19 08:16:00,67.3,63.9,30.13,NNE,23,0.0,0.0,89,0.00,,,0.00,WUHU216HW,2013-08-19 13:16:00,
2013-08-19 08:21:00,68.0,64.6,30.13,NE,45,0.0,0.0,89,0.00,,,0.00,WUHU216HW,2013-08-19 13:21:00,
2013-08-19 08:26:00,68.9,65.3,30.13,NE,45,0.0,0.0,88,0.00,,,0.00,WUHU216HW,2013-08-19 13:26:00,
2013-08-19 08:31:00,69.7,65.6,30.13,NE,45,0.0,0.0,87,0.00,,,0.00,WUHU216HW,2013-08-19 13:31:00,
2013-08-19 08:36:00,70.6,66.2,30.13,North,0,0.2,0.9,86,0.00,,,0.00,WUHU216HW,2013-08-19 13:36:00,
2013-08-19 08:41:00,71.6,66.5,30.13,North,0,0.6,0.9,84,0.00,,,0.00,WUHU216HW,2013-08-19 13:41:00,
2013-08-19 08:46:00,72.5,67.1,30.13,East,90,0.0,0.9,83,0.00,,,0.00,WUHU216HW,2013-08-19 13:46:00,
2013-08-19 08:51:00,73.4,68.3,30.13,SE,135,0.5,0.9,84,0.00,,,0.00,WUHU216HW,2013-08-19 13:51:00,
2013-08-19 08:56:00,74.3,68.9,30.13,SSE,165,0.4,1.1,83,0.00,,,0.00,WUHU216HW,2013-08-19 13:56:00,
2013-08-19 09:01:00,75.2,69.1,30.13,SE,135,0.5,1.1,81,0.00,,,0.00,WUHU216HW,2013-08-19 14:01:00,
2013-08-19 09:06:00,76.0,69.0,30.12,SE,135,0.5,1.1,79,0.00,,,0.00,WUHU216HW,2013-08-19 14:06:00,
2013-08-19 09:11:00,77.0,69.7,30.12,SSW,203,0.5,1.1,78,0.00,,,0.00,WUHU216HW,2013-08-19 14:11:00,
2013-08-19 09:16:00,77.8,69.9,30.13,SE,135,0.6,1.3,77,0.00,,,0.00,WUHU216HW,2013-08-19 14:16:00,
2013-08-19 09:21:00,78.5,70.3,30.13,SW,225,0.9,1.3,76,0.00,,,0.00,WUHU216HW,2013-08-19 14:21:00,
2013-08-19 09:26:00,78.8,69.4,30.13,SE,135,0.5,1.1,73,0.00,,,0.00,WUHU216HW,2013-08-19 14:26:00,
2013-08-19 09:31:00,79.0,69.6,30.13,SSW,203,0.5,1.6,73,0.00,,,0.00,WUHU216HW,2013-08-19 14:31:00,
2013-08-19 09:36:00,79.7,70.3,30.13,SSE,164,0.8,1.6,73,0.00,,,0.00,WUHU216HW,2013-08-19 14:36:00,
2013-08-19 09:41:00,80.1,70.7,30.13,SE,134,0.6,1.3,73,0.00,,,0.00,WUHU216HW,2013-08-19 14:41:00,
2013-08-19 09:46:00,80.6,70.8,30.13,SSW,203,0.9,1.6,72,0.00,,,0.00,WUHU216HW,2013-08-19 14:46:00,
2013-08-19 09:51:00,81.0,70.4,30.13,South,190,0.6,1.6,70,0.00,,,0.00,WUHU216HW,2013-08-19 14:51:00,
2013-08-19 09:56:00,81.4,70.2,30.13,South,190,0.7,1.1,69,0.00,,,0.00,WUHU216HW,2013-08-19 14:56:00,
2013-08-19 10:01:00,81.5,70.4,30.13,South,180,0.9,1.8,69,0.00,,,0.00,WUHU216HW,2013-08-19 15:01:00,
2013-08-19 10:06:00,81.9,69.9,30.13,NE,45,0.4,1.8,67,0.00,,,0.00,WUHU216HW,2013-08-19 15:06:00,
2013-08-19 10:11:00,82.4,69.8,30.13,SSE,158,1.1,1.3,66,0.00,,,0.00,WUHU216HW,2013-08-19 15:11:00,
2013-08-19 10:16:00,82.6,70.9,30.13,SSW,203,0.4,1.3,68,0.00,,,0.00,WUHU216HW,2013-08-19 15:16:00,
2013-08-19 10:21:00,82.8,70.7,30.13,SSW,203,1.1,1.3,67,0.00,,,0.00,WUHU216HW,2013-08-19 15:21:00,
2013-08-19 10:26:00,83.2,71.0,30.13,SSW,203,1.8,2.5,67,0.00,,,0.00,WUHU216HW,2013-08-19 15:26:00,
2013-08-19 10:31:00,83.3,71.2,30.13,South,180,1.8,2.5,67,0.00,,,0.00,WUHU216HW,2013-08-19 15:31:00,
2013-08-19 10:36:00,83.7,71.1,30.13,SSW,203,1.1,2.5,66,0.00,,,0.00,WUHU216HW,2013-08-19 15:36:00,
2013-08-19 10:41:00,83.9,70.8,30.13,NW,317,0.6,2.5,65,0.00,,,0.00,WUHU216HW,2013-08-19 15:41:00,
2013-08-19 10:46:00,83.9,70.4,30.13,SSW,203,0.9,1.3,64,0.00,,,0.00,WUHU216HW,2013-08-19 15:46:00,
2013-08-19 10:51:00,84.4,70.9,30.13,SE,138,0.7,2.0,64,0.00,,,0.00,WUHU216HW,2013-08-19 15:51:00,
2013-08-19 10:56:00,84.6,70.7,30.13,South,180,0.4,2.0,63,0.00,,,0.00,WUHU216HW,2013-08-19 15:56:00,
2013-08-19 11:01:00,84.6,70.7,30.13,South,169,1.0,4.5,63,0.00,,,0.00,WUHU216HW,2013-08-19 16:01:00,
2013-08-19 11:06:00,84.4,69.6,30.13,North,0,1.1,4.5,61,0.00,,,0.00,WUHU216HW,2013-08-19 16:06:00,
2013-08-19 11:11:00,84.2,68.9,30.12,NNE,16,0.8,2.2,60,0.00,,,0.00,WUHU216HW,2013-08-19 16:11:00,
2013-08-19 11:16:00,84.2,70.3,30.12,SE,145,0.5,2.2,63,0.00,,,0.00,WUHU216HW,2013-08-19 16:16:00,
2013-08-19 11:21:00,84.8,69.8,30.12,North,0,1.3,1.3,61,0.00,,,0.00,WUHU216HW,2013-08-19 16:21:00,
2013-08-19 11:26:00,84.8,69.4,30.12,SW,236,1.3,2.5,60,0.00,,,0.00,WUHU216HW,2013-08-19 16:26:00,
2013-08-19 11:31:00,84.4,69.6,30.12,SE,135,1.1,2.5,61,0.00,,,0.00,WUHU216HW,2013-08-19 16:31:00,
2013-08-19 11:36:00,83.9,69.0,30.12,WNW,293,1.6,1.8,61,0.00,,,0.00,WUHU216HW,2013-08-19 16:36:00,
2013-08-19 11:41:00,83.9,69.5,30.12,NW,315,1.1,2.0,62,0.00,,,0.00,WUHU216HW,2013-08-19 16:41:00,
2013-08-19 11:46:00,84.2,69.8,30.11,SSW,203,0.9,2.0,62,0.00,,,0.00,WUHU216HW,2013-08-19 16:46:00,
2013-08-19 11:51:00,84.6,69.8,30.11,SSW,203,0.9,1.3,61,0.00,,,0.00,WUHU216HW,2013-08-19 16:51:00,
2013-08-19 11:56:00,84.8,69.8,30.11,SSW,201,0.7,2.5,61,0.00,,,0.00,WUHU216HW,2013-08-19 16:56:00,
2013-08-19 12:01:00,85.3,70.4,30.11,SSW,194,1.0,2.5,61,0.00,,,0.00,WUHU216HW,2013-08-19 17:01:00,
2013-08-19 12:06:00,85.9,70.4,30.11,SSW,199,1.3,2.5,60,0.00,,,0.00,WUHU216HW,2013-08-19 17:06:00,
2013-08-19 12:11:00,86.0,70.0,30.11,SSW,198,1.0,2.5,59,0.00,,,0.00,WUHU216HW,2013-08-19 17:11:00,
2013-08-19 12:16:00,86.2,69.7,30.11,SSW,205,0.9,2.0,58,0.00,,,0.00,WUHU216HW,2013-08-19 17:16:00,
2013-08-19 12:21:00,86.4,69.8,30.11,SSW,203,1.8,1.8,58,0.00,,,0.00,WUHU216HW,2013-08-19 17:21:00,
2013-08-19 12:26:00,86.4,69.8,30.11,SSW,203,1.3,2.0,58,0.00,,,0.00,WUHU216HW,2013-08-19 17:26:00,
2013-08-19 12:31:00,86.8,69.7,30.10,SSW,203,2.7,2.7,57,0.00,,,0.00,WUHU216HW,2013-08-19 17:31:00,
2013-08-19 12:36:00,86.9,69.8,30.10,SSW,199,1.5,2.9,57,0.00,,,0.00,WUHU216HW,2013-08-19 17:36:00,
2013-08-19 12:41:00,86.6,69.5,30.10,SW,236,1.0,2.9,57,0.00,,,0.00,WUHU216HW,2013-08-19 17:41:00,
2013-08-19 12:46:00,86.4,69.8,30.10,SSE,153,0.6,2.0,58,0.00,,,0.00,WUHU216HW,2013-08-19 17:46:00,
2013-08-19 12:51:00,86.6,69.5,30.10,SSW,203,2.5,2.5,57,0.00,,,0.00,WUHU216HW,2013-08-19 17:51:00,
2013-08-19 12:56:00,86.6,69.5,30.10,SSW,203,1.6,2.5,57,0.00,,,0.00,WUHU216HW,2013-08-19 17:56:00,
2013-08-19 13:01:00,86.6,69.5,30.10,SSE,149,0.6,2.5,57,0.00,,,0.00,WUHU216HW,2013-08-19 18:01:00,
2013-08-19 13:06:00,86.8,69.7,30.10,SSW,203,1.8,2.7,57,0.00,,,0.00,WUHU216HW,2013-08-19 18:06:00,
2013-08-19 13:11:00,86.9,69.8,30.10,SE,135,1.3,2.7,57,0.00,,,0.00,WUHU216HW,2013-08-19 18:11:00,
2013-08-19 13:16:00,87.1,70.0,30.11,South,180,1.3,2.5,57,0.00,,,0.00,WUHU216HW,2013-08-19 18:16:00,
2013-08-19 13:21:00,87.1,68.9,30.11,ENE,68,0.8,2.0,55,0.00,,,0.00,WUHU216HW,2013-08-19 18:21:00,
2013-08-19 13:26:00,87.3,69.1,30.11,SSW,203,2.2,2.2,55,0.00,,,0.00,WUHU216HW,2013-08-19 18:26:00,
2013-08-19 13:31:00,87.5,68.8,30.11,SSW,203,3.1,3.1,54,0.00,,,0.00,WUHU216HW,2013-08-19 18:31:00,
2013-08-19 13:36:00,87.7,69.5,30.10,SSW,193,1.2,3.1,55,0.00,,,0.00,WUHU216HW,2013-08-19 18:36:00,
2013-08-19 13:41:00,87.7,68.9,30.11,SSE,158,0.7,2.9,54,0.00,,,0.00,WUHU216HW,2013-08-19 18:41:00,
2013-08-19 13:46:00,86.9,67.8,30.10,SSE,158,2.5,2.5,53,0.00,,,0.00,WUHU216HW,2013-08-19 18:46:00,
2013-08-19 13:51:00,87.1,68.4,30.10,South,176,1.4,3.8,54,0.00,,,0.00,WUHU216HW,2013-08-19 18:51:00,
2013-08-19 13:56:00,87.1,68.4,30.10,SSW,192,1.1,3.8,54,0.00,,,0.00,WUHU216HW,2013-08-19 18:56:00,
2013-08-19 14:01:00,87.1,68.9,30.10,SSW,203,1.1,2.7,55,0.00,,,0.00,WUHU216HW,2013-08-19 19:01:00,
2013-08-19 14:06:00,87.3,69.1,30.10,SSE,156,0.8,2.5,55,0.00,,,0.00,WUHU216HW,2013-08-19 19:06:00,
2013-08-19 14:11:00,87.1,68.9,30.10,SSW,203,1.3,1.8,55,0.00,,,0.00,WUHU216HW,2013-08-19 19:11:00,
2013-08-19 14:16:00,86.8,67.6,30.10,North,5,1.1,2.0,53,0.00,,,0.00,WUHU216HW,2013-08-19 19:16:00,
2013-08-19 14:21:00,86.2,67.1,30.09,NE,41,0.6,2.7,53,0.00,,,0.00,WUHU216HW,2013-08-19 19:21:00,
2013-08-19 14:26:00,86.2,68.7,30.09,ESE,113,1.3,2.7,56,0.00,,,0.00,WUHU216HW,2013-08-19 19:26:00,
2013-08-19 14:31:00,86.6,68.5,30.09,SE,135,1.8,2.0,55,0.00,,,0.00,WUHU216HW,2013-08-19 19:31:00,
2013-08-19 14:36:00,86.8,68.7,30.09,SSW,203,3.1,4.0,55,0.00,,,0.00,WUHU216HW,2013-08-19 19:36:00,
2013-08-19 14:41:00,86.9,69.3,30.09,South,180,1.1,4.0,56,0.00,,,0.00,WUHU216HW,2013-08-19 19:41:00,
2013-08-19 14:46:00,87.3,69.7,30.09,SSE,158,1.8,4.3,56,0.00,,,0.00,WUHU216HW,2013-08-19 19:46:00,
2013-08-19 14:51:00,87.5,69.3,30.09,South,180,3.6,4.5,55,0.00,,,0.00,WUHU216HW,2013-08-19 19:51:00,
2013-08-19 14:56:00,87.5,69.3,30.09,WSW,248,1.2,4.5,55,0.00,,,0.00,WUHU216HW,2013-08-19 19:56:00,
2013-08-19 15:01:00,87.5,69.3,30.08,SSW,203,2.0,4.3,55,0.00,,,0.00,WUHU216HW,2013-08-19 20:01:00,
2013-08-19 15:06:00,87.7,69.5,30.08,SSW,203,2.2,4.3,55,0.00,,,0.00,WUHU216HW,2013-08-19 20:06:00,
2013-08-19 15:11:00,87.5,69.3,30.08,SSW,203,1.8,2.2,55,0.00,,,0.00,WUHU216HW,2013-08-19 20:11:00,
2013-08-19 15:16:00,87.1,68.9,30.08,SSW,203,0.8,2.2,55,0.00,,,0.00,WUHU216HW,2013-08-19 20:16:00,
2013-08-19 15:21:00,86.9,69.3,30.08,SSE,158,1.8,2.2,56,0.00,,,0.00,WUHU216HW,2013-08-19 20:21:00,
2013-08-19 15:26:00,86.9,68.8,30.08,SSE,161,1.2,2.0,55,0.00,,,0.00,WUHU216HW,2013-08-19 20:26:00,
2013-08-19 15:31:00,86.8,69.1,30.08,SW,225,1.6,2.5,56,0.00,,,0.00,WUHU216HW,2013-08-19 20:31:00,
2013-08-19 15:36:00,86.4,68.9,30.08,SSW,200,1.2,2.5,56,0.00,,,0.00,WUHU216HW,2013-08-19 20:36:00,
2013-08-19 15:41:00,86.2,68.7,30.08,SE,135,0.4,2.0,56,0.00,,,0.00,WUHU216HW,2013-08-19 20:41:00,
2013-08-19 15:46:00,85.3,67.3,30.07,SSE,165,0.3,2.5,55,0.00,,,0.00,WUHU216HW,2013-08-19 20:46:00,
2013-08-19 15:51:00,84.8,67.3,30.07,SW,216,0.3,2.5,56,0.00,,,0.00,WUHU216HW,2013-08-19 20:51:00,
2013-08-19 15:56:00,85.0,68.1,30.07,SSW,206,1.6,2.5,57,0.00,,,0.00,WUHU216HW,2013-08-19 20:56:00,
2013-08-19 16:01:00,85.3,68.9,30.07,SSW,203,1.6,2.9,58,0.00,,,0.00,WUHU216HW,2013-08-19 21:01:00,
2013-08-19 16:06:00,85.7,69.2,30.07,South,191,1.1,2.9,58,0.00,,,0.00,WUHU216HW,2013-08-19 21:06:00,
2013-08-19 16:11:00,86.2,68.7,30.07,SE,137,1.6,2.5,56,0.00,,,0.00,WUHU216HW,2013-08-19 21:11:00,
2013-08-19 16:16:00,86.2,68.7,30.07,South,187,1.7,2.5,56,0.00,,,0.00,WUHU216HW,2013-08-19 21:16:00,
2013-08-19 16:21:00,86.4,68.9,30.07,SSW,199,1.6,2.7,56,0.00,,,0.00,WUHU216HW,2013-08-19 21:21:00,
2013-08-19 16:26:00,86.8,69.1,30.06,SSW,207,1.5,3.4,56,0.00,,,0.00,WUHU216HW,2013-08-19 21:26:00,
2013-08-19 16:31:00,86.6,69.0,30.06,SSW,203,1.8,3.4,56,0.00,,,0.00,WUHU216HW,2013-08-19 21:31:00,
2013-08-19 16:36:00,86.8,69.1,30.06,SSW,203,1.1,1.8,56,0.00,,,0.00,WUHU216HW,2013-08-19 21:36:00,
2013-08-19 16:41:00,86.4,68.9,30.06,SSE,168,1.4,3.6,56,0.00,,,0.00,WUHU216HW,2013-08-19 21:41:00,
2013-08-19 16:46:00,86.2,68.7,30.06,South,190,1.4,3.6,56,0.00,,,0.00,WUHU216HW,2013-08-19 21:46:00,
2013-08-19 16:51:00,86.0,69.0,30.06,SE,135,2.5,2.7,57,0.00,,,0.00,WUHU216HW,2013-08-19 21:51:00,
2013-08-19 16:56:00,86.0,69.0,30.06,South,188,0.8,3.1,57,0.00,,,0.00,WUHU216HW,2013-08-19 21:56:00,
2013-08-19 17:01:00,86.0,69.0,30.06,SSW,192,1.7,3.1,57,0.00,,,0.00,WUHU216HW,2013-08-19 22:01:00,
2013-08-19 17:06:00,86.0,68.5,30.06,SSW,211,1.0,2.5,56,0.00,,,0.00,WUHU216HW,2013-08-19 22:06:00,
2013-08-19 17:11:00,85.7,68.7,30.06,SSW,203,0.9,1.8,57,0.00,,,0.00,WUHU216HW,2013-08-19 22:11:00,
2013-08-19 17:16:00,85.5,69.0,30.06,SSW,203,0.7,1.8,58,0.00,,,0.00,WUHU216HW,2013-08-19 22:16:00,
2013-08-19 17:21:00,85.5,69.0,30.06,SSW,203,0.7,1.8,58,0.00,,,0.00,WUHU216HW,2013-08-19 22:21:00,
2013-08-19 17:26:00,85.3,68.9,30.06,East,90,0.9,1.8,58,0.00,,,0.00,WUHU216HW,2013-08-19 22:26:00,
2013-08-19 17:31:00,85.1,68.7,30.06,SSW,203,1.3,1.3,58,0.00,,,0.00,WUHU216HW,2013-08-19 22:31:00,
2013-08-19 17:36:00,84.8,68.4,30.06,SE,132,0.8,1.8,58,0.00,,,0.00,WUHU216HW,2013-08-19 22:36:00,
2013-08-19 17:41:00,84.6,68.2,30.06,SE,135,1.1,1.8,58,0.00,,,0.00,WUHU216HW,2013-08-19 22:41:00,
2013-08-19 17:46:00,84.4,68.6,30.06,South,180,0.9,1.3,59,0.00,,,0.00,WUHU216HW,2013-08-19 22:46:00,
2013-08-19 17:51:00,84.4,69.1,30.06,South,171,0.6,1.1,60,0.00,,,0.00,WUHU216HW,2013-08-19 22:51:00,
2013-08-19 17:56:00,84.6,69.3,30.05,SSE,155,0.4,1.1,60,0.00,,,0.00,WUHU216HW,2013-08-19 22:56:00,
2013-08-19 18:01:00,85.0,69.6,30.05,SE,135,0.4,1.1,60,0.00,,,0.00,WUHU216HW,2013-08-19 23:01:00,
2013-08-19 18:06:00,85.3,69.9,30.05,South,180,0.4,1.8,60,0.00,,,0.00,WUHU216HW,2013-08-19 23:06:00,
2013-08-19 18:11:00,85.7,69.8,30.05,SSW,203,0.7,1.8,59,0.00,,,0.00,WUHU216HW,2013-08-19 23:11:00,
2013-08-19 18:16:00,85.9,69.4,30.05,SSW,203,1.8,1.8,58,0.00,,,0.00,WUHU216HW,2013-08-19 23:16:00,
2013-08-19 18:21:00,85.7,69.2,30.05,SSE,147,0.7,1.8,58,0.00,,,0.00,WUHU216HW,2013-08-19 23:21:00,
2013-08-19 18:26:00,85.3,68.9,30.05,SE,137,0.3,1.8,58,0.00,,,0.00,WUHU216HW,2013-08-19 23:26:00,
2013-08-19 18:31:00,85.0,68.6,30.05,SE,135,0.2,0.7,58,0.00,,,0.00,WUHU216HW,2013-08-19 23:31:00,
2013-08-19 18:36:00,84.4,68.6,30.05,SE,144,0.4,0.7,59,0.00,,,0.00,WUHU216HW,2013-08-19 23:36:00,
2013-08-19 18:41:00,83.9,68.0,30.05,ESE,113,0.0,0.7,59,0.00,,,0.00,WUHU216HW,2013-08-19 23:41:00,
2013-08-19 18:46:00,83.3,67.5,30.05,SE,135,0.0,0.4,59,0.00,,,0.00,WUHU216HW,2013-08-19 23:46:00,
2013-08-19 18:51:00,83.0,67.7,30.05,SE,135,0.0,0.4,60,0.00,,,0.00,WUHU216HW,2013-08-19 23:51:00,
2013-08-19 18:56:00,82.6,67.8,30.05,SE,135,0.0,0.4,61,0.00,,,0.00,WUHU216HW,2013-08-19 23:56:00,
2013-08-19 19:01:00,82.1,67.2,30.05,SE,135,0.0,0.0,61,0.00,,,0.00,WUHU216HW,2013-08-20 00:01:00,
2013-08-19 19:06:00,81.7,67.4,30.05,SE,135,0.0,0.0,62,0.00,,,0.00,WUHU216HW,2013-08-20 00:06:00,
2013-08-19 19:11:00,81.4,67.5,30.05,SE,135,0.0,0.0,63,0.00,,,0.00,WUHU216HW,2013-08-20 00:11:00,
2013-08-19 19:16:00,81.2,67.3,30.05,SE,135,0.0,0.0,63,0.00,,,0.00,WUHU216HW,2013-08-20 00:16:00,
2013-08-19 19:21:00,81.0,67.7,30.05,SE,135,0.0,0.0,64,0.00,,,0.00,WUHU216HW,2013-08-20 00:21:00,
2013-08-19 19:26:00,80.8,67.5,30.05,SE,135,0.0,0.0,64,0.00,,,0.00,WUHU216HW,2013-08-20 00:26:00,
2013-08-19 19:31:00,80.5,67.1,30.05,SE,135,0.0,0.0,64,0.00,,,0.00,WUHU216HW,2013-08-20 00:31:00,
2013-08-19 19:36:00,80.1,67.2,30.05,SE,135,0.0,0.0,65,0.00,,,0.00,WUHU216HW,2013-08-20 00:36:00,
2013-08-19 19:41:00,79.7,66.9,30.05,SE,135,0.0,0.0,65,0.00,,,0.00,WUHU216HW,2013-08-20 00:41:00,
2013-08-19 19:46:00,79.4,67.1,30.05,SE,135,0.0,0.0,66,0.00,,,0.00,WUHU216HW,2013-08-20 00:46:00,
2013-08-19 19:51:00,78.8,66.5,30.05,SE,135,0.0,0.0,66,0.00,,,0.00,WUHU216HW,2013-08-20 00:51:00,
2013-08-19 19:56:00,78.1,66.2,30.05,SE,135,0.0,0.0,67,0.00,,,0.00,WUHU216HW,2013-08-20 00:56:00,
2013-08-19 20:01:00,77.6,65.8,30.05,SE,135,0.0,0.0,67,0.00,,,0.00,WUHU216HW,2013-08-20 01:01:00,
2013-08-19 20:06:00,77.0,65.7,30.05,SE,135,0.0,0.0,68,0.00,,,0.00,WUHU216HW,2013-08-20 01:06:00,
2013-08-19 20:11:00,76.5,65.6,30.05,SE,135,0.0,0.0,69,0.00,,,0.00,WUHU216HW,2013-08-20 01:11:00,
2013-08-19 20:16:00,76.0,65.5,30.05,SE,135,0.0,0.0,70,0.00,,,0.00,WUHU216HW,2013-08-20 01:16:00,
2013-08-19 20:21:00,75.4,65.3,30.05,SE,135,0.0,0.0,71,0.00,,,0.00,WUHU216HW,2013-08-20 01:21:00,
2013-08-19 20:26:00,75.1,65.1,30.05,SE,135,0.0,0.0,71,0.00,,,0.00,WUHU216HW,2013-08-20 01:26:00,
2013-08-19 20:31:00,74.5,64.5,30.05,SE,135,0.0,0.0,71,0.00,,,0.00,WUHU216HW,2013-08-20 01:31:00,
2013-08-19 20:36:00,74.3,64.8,30.05,SE,135,0.2,0.2,72,0.00,,,0.00,WUHU216HW,2013-08-20 01:36:00,
2013-08-19 20:41:00,73.8,64.6,30.06,SE,135,0.0,0.4,73,0.00,,,0.00,WUHU216HW,2013-08-20 01:41:00,
2013-08-19 20:46:00,73.6,64.4,30.06,SE,135,0.0,0.4,73,0.00,,,0.00,WUHU216HW,2013-08-20 01:46:00,
2013-08-19 20:51:00,73.4,64.7,30.06,SE,135,0.0,0.0,74,0.00,,,0.00,WUHU216HW,2013-08-20 01:51:00,
2013-08-19 20:56:00,73.1,64.4,30.06,SE,135,0.0,0.4,74,0.00,,,0.00,WUHU216HW,2013-08-20 01:56:00,
2013-08-19 21:01:00,72.9,64.5,30.06,SE,135,0.0,0.4,75,0.00,,,0.00,WUHU216HW,2013-08-20 02:01:00,
2013-08-19 21:06:00,72.5,64.2,30.07,SE,135,0.0,0.0,75,0.00,,,0.00,WUHU216HW,2013-08-20 02:06:00,
2013-08-19 21:11:00,72.2,63.5,30.07,SE,135,0.0,0.0,74,0.00,,,0.00,WUHU216HW,2013-08-20 02:11:00,
2013-08-19 21:16:00,71.8,63.5,30.07,SE,135,0.0,0.0,75,0.00,,,0.00,WUHU216HW,2013-08-20 02:16:00,
2013-08-19 21:21:00,71.6,63.3,30.07,SE,135,0.0,0.0,75,0.00,,,0.00,WUHU216HW,2013-08-20 02:21:00,
2013-08-19 21:26:00,71.5,63.1,30.07,SE,135,0.0,0.0,75,0.00,,,0.00,WUHU216HW,2013-08-20 02:26:00,
2013-08-19 21:31:00,71.3,63.3,30.07,SE,135,0.0,0.0,76,0.00,,,0.00,WUHU216HW,2013-08-20 02:31:00,
2013-08-19 21:36:00,71.3,63.3,30.07,SE,135,0.0,0.0,76,0.00,,,0.00,WUHU216HW,2013-08-20 02:36:00,
2013-08-19 21:41:00,71.1,63.1,30.07,SE,135,0.0,0.0,76,0.00,,,0.00,WUHU216HW,2013-08-20 02:41:00,
2013-08-19 21:46:00,70.7,63.1,30.07,SE,135,0.0,0.0,77,0.00,,,0.00,WUHU216HW,2013-08-20 02:46:00,
2013-08-19 21:51:00,70.6,62.9,30.07,SE,135,0.0,0.0,77,0.00,,,0.00,WUHU216HW,2013-08-20 02:51:00,
2013-08-19 21:56:00,70.2,62.6,30.07,SE,135,0.0,0.0,77,0.00,,,0.00,WUHU216HW,2013-08-20 02:56:00,
2013-08-19 22:01:00,70.2,62.6,30.07,SE,135,0.0,0.0,77,0.00,,,0.00,WUHU216HW,2013-08-20 03:01:00,
2013-08-19 22:06:00,69.8,62.7,30.07,SE,135,0.0,0.0,78,0.00,,,0.00,WUHU216HW,2013-08-20 03:06:00,
2013-08-19 22:11:00,69.5,62.3,30.07,SE,135,0.0,0.0,78,0.00,,,0.00,WUHU216HW,2013-08-20 03:11:00,
2013-08-19 22:16:00,69.3,62.5,30.07,SE,135,0.0,0.0,79,0.00,,,0.00,WUHU216HW,2013-08-20 03:16:00,
2013-08-19 22:21:00,69.1,62.4,30.07,SE,135,0.0,0.0,79,0.00,,,0.00,WUHU216HW,2013-08-20 03:21:00,
2013-08-19 22:26:00,68.9,62.2,30.07,SE,135,0.0,0.0,79,0.00,,,0.00,WUHU216HW,2013-08-20 03:26:00,
2013-08-19 22:31:00,68.8,62.4,30.07,SE,135,0.0,0.0,80,0.00,,,0.00,WUHU216HW,2013-08-20 03:31:00,
2013-08-19 22:36:00,68.6,62.2,30.07,SE,135,0.0,0.0,80,0.00,,,0.00,WUHU216HW,2013-08-20 03:36:00,
2013-08-19 22:41:00,68.4,62.4,30.07,SE,135,0.0,0.0,81,0.00,,,0.00,WUHU216HW,2013-08-20 03:41:00,
2013-08-19 22:46:00,68.4,62.4,30.07,SE,135,0.0,0.0,81,0.00,,,0.00,WUHU216HW,2013-08-20 03:46:00,
2013-08-19 22:51:00,68.2,62.2,30.07,SE,135,0.0,0.0,81,0.00,,,0.00,WUHU216HW,2013-08-20 03:51:00,
2013-08-19 22:56:00,68.2,62.2,30.07,SE,135,0.0,0.0,81,0.00,,,0.00,WUHU216HW,2013-08-20 03:56:00,
2013-08-19 23:01:00,68.0,62.1,30.07,SE,135,0.0,0.0,81,0.00,,,0.00,WUHU216HW,2013-08-20 04:01:00,
2013-08-19 23:06:00,67.9,61.9,30.08,SE,135,0.0,0.0,81,0.00,,,0.00,WUHU216HW,2013-08-20 04:06:00,
2013-08-19 23:11:00,67.7,61.8,30.08,SE,135,0.0,0.0,81,0.00,,,0.00,WUHU216HW,2013-08-20 04:11:00,
2013-08-19 23:16:00,67.7,62.0,30.08,SE,135,0.0,0.0,82,0.00,,,0.00,WUHU216HW,2013-08-20 04:16:00,
2013-08-19 23:21:00,67.5,61.8,30.08,SE,135,0.0,0.0,82,0.00,,,0.00,WUHU216HW,2013-08-20 04:21:00,
2013-08-19 23:26:00,67.3,61.7,30.08,SE,135,0.0,0.0,82,0.00,,,0.00,WUHU216HW,2013-08-20 04:26:00,
2013-08-19 23:31:00,67.3,62.0,30.08,SE,135,0.0,0.0,83,0.00,,,0.00,WUHU216HW,2013-08-20 04:31:00,
2013-08-19 23:36:00,67.1,61.8,30.08,SE,135,0.0,0.0,83,0.00,,,0.00,WUHU216HW,2013-08-20 04:36:00,
2013-08-19 23:41:00,67.0,61.7,30.08,SE,135,0.0,0.0,83,0.00,,,0.00,WUHU216HW,2013-08-20 04:41:00,
2013-08-19 23:46:00,67.0,61.7,30.08,SE,135,0.0,0.0,83,0.00,,,0.00,WUHU216HW,2013-08-20 04:46:00,
2013-08-19 23:51:00,66.8,61.5,30.08,SE,135,0.0,0.0,83,0.00,,,0.00,WUHU216HW,2013-08-20 04:51:00,
2013-08-19 23:56:00,66.8,61.5,30.08,SE,135,0.0,0.0,83,0.00,,,0.00,WUHU216HW,2013-08-20 04:56:00,